South Bend, IN

4:24 AM EST on February 06, 2016 (GMT -0500)
South Bend Regional

Weather History for KSBN - December, 2012

Change the Weather History Date:

Sunday, December 30, 2012

  Actual Average Record
Temperature  
Mean Temperature 22 °F 26 °F  
Max Temperature 28 °F 32 °F 60 °F (1965)
Min Temperature 15 °F 19 °F -13 °F (1909)
Degree Days  
Heating Degree Days 43 39  
Month to date heating degree days 846 1081  
Since 1 July heating degree days 2167 2350  
Cooling Degree Days 0 0  
Month to date cooling degree days 0 0  
Year to date cooling degree days 1115 773  
Moisture  
Dew Point 16 °F    
Average Humidity 78    
Maximum Humidity 88    
Minimum Humidity 68    
Precipitation  
Precipitation 0.00 in 0.08 in 1.98 in (1992)
Month to date precipitation 3.43 2.53  
Year to date precipitation 34.69 37.92  
Snow  
Snow 0.00 in 0.60 in 4.80 in (1997)
Month to date snowfall 9.1 16.6  
Since 1 July snowfall 9.1 21.8  
Snow Depth 0.00 in    
Sea Level Pressure  
Sea Level Pressure 30.30 in    
Wind  
Wind Speed 10 mph (SW)    
Max Wind Speed 21 mph    
Max Gust Speed 25 mph    
Visibility 8 miles    
Events      
T = Trace of Precipitation, MM = Missing Value Source: NWS Daily Summary

Daily Weather History Graph

Daily Weather History Graph

Search for Another Location

Airport or City:

Trip Planner

Search our weather history database for the weather conditions in past years. The results will help you decide how hot, cold, wet, or windy it might be!

Date:

Astronomy

Dec. 30, 2012 Rise Set
Actual Time 8:12 AM EST 5:24 PM EST
Civil Twilight 7:40 AM EST 5:55 PM EST
Nautical Twilight 7:05 AM EST 6:30 PM EST
Astronomical Twilight 6:32 AM EST 7:04 PM EST
Moon 7:57 PM EST (12/30) 9:18 AM EST (12/30)
Length of Visible Light 10h 14m
Length of Day
9h 11m
Waning Gibbous, 95% of the Moon is Illuminated
Dec 30
Waning Gibbous
Jan 4
Last Quarter
Jan 11
New
Jan 18
First Quarter
Jan 26
Full

Hourly Weather History & Observations

Time (EST) Temp. Windchill Dew Point Humidity Pressure Visibility Wind Dir Wind Speed Gust Speed Precip Events Conditions
12:54 AM 26.1 °F 13.1 °F 21.0 °F 81% 30.20 in 10.0 mi West 17.3 mph - N/A   Overcast
1:54 AM 24.1 °F 12.0 °F 19.0 °F 81% 30.22 in 10.0 mi West 13.8 mph - N/A   Overcast
2:54 AM 23.0 °F 13.1 °F 18.0 °F 81% 30.25 in 10.0 mi West 9.2 mph - N/A   Overcast
3:54 AM 21.9 °F 10.4 °F 17.1 °F 82% 30.27 in 10.0 mi SW 11.5 mph - N/A   Overcast
4:54 AM 21.0 °F 9.3 °F 17.1 °F 85% 30.29 in 9.0 mi SW 11.5 mph - N/A   Overcast
5:54 AM 19.9 °F 7.9 °F 15.1 °F 81% 30.30 in 9.0 mi SW 11.5 mph - N/A   Overcast
6:54 AM 18.0 °F 8.7 °F 12.9 °F 81% 30.34 in 8.0 mi SW 6.9 mph - N/A   Overcast
7:27 AM 17.6 °F 9.3 °F 12.2 °F 79% 30.30 in 7.0 mi SSW 5.8 mph - N/A   Partly Cloudy
7:43 AM 17.6 °F 9.3 °F 12.2 °F 79% 30.30 in 5.0 mi SSW 5.8 mph - N/A   Mostly Cloudy
7:50 AM 15.8 °F 5.1 °F 12.2 °F 86% 30.30 in 7.0 mi SSW 8.1 mph - N/A   Scattered Clouds
7:54 AM 16.0 °F 5.3 °F 12.0 °F 84% 30.35 in 7.0 mi SSW 8.1 mph - N/A   Scattered Clouds
8:09 AM 15.8 °F 5.1 °F 12.2 °F 86% 30.31 in 3.0 mi SSW 8.1 mph - N/A   Partly Cloudy
8:54 AM 15.1 °F 4.2 °F 10.9 °F 84% 30.36 in 5.0 mi SSW 8.1 mph - N/A   Clear
9:54 AM 16.0 °F 5.3 °F 12.0 °F 84% 30.37 in 5.0 mi SSW 8.1 mph - N/A   Clear
10:54 AM 18.0 °F 4.8 °F 12.0 °F 78% 30.40 in 6.0 mi SW 12.7 mph - N/A   Haze
11:54 AM 19.9 °F 11.1 °F 14.0 °F 78% 30.37 in 7.0 mi SW 6.9 mph - N/A   Clear
12:54 PM 23.0 °F 15.8 °F 15.1 °F 72% 30.35 in 7.0 mi Variable 5.8 mph - N/A   Clear
1:54 PM 24.1 °F 16.0 °F 16.0 °F 71% 30.32 in 7.0 mi SSW 6.9 mph - N/A   Clear
2:54 PM 26.1 °F 15.6 °F 18.0 °F 71% 30.32 in 8.0 mi SSW 11.5 mph - N/A   Clear
3:54 PM 27.0 °F 16.1 °F 18.0 °F 69% 30.30 in 8.0 mi SSW 12.7 mph - N/A   Clear
4:54 PM 26.1 °F 16.8 °F 18.0 °F 71% 30.29 in 8.0 mi South 9.2 mph - N/A   Clear
5:54 PM 24.1 °F 14.4 °F 17.1 °F 75% 30.29 in 8.0 mi SSW 9.2 mph - N/A   Clear
6:54 PM 25.0 °F 15.5 °F 18.0 °F 75% 30.30 in 8.0 mi South 9.2 mph - N/A   Clear
7:54 PM 26.1 °F 14.5 °F 19.0 °F 75% 30.29 in 10.0 mi SSW 13.8 mph - N/A   Clear
8:54 PM 25.0 °F 14.8 °F 19.0 °F 78% 30.25 in 9.0 mi SSW 10.4 mph - N/A   Clear
9:54 PM 24.1 °F 14.4 °F 18.0 °F 77% 30.24 in 10.0 mi South 9.2 mph - N/A   Clear
10:54 PM 25.0 °F 14.8 °F 18.0 °F 75% 30.23 in 10.0 mi SSW 10.4 mph - N/A   Clear
11:54 PM 27.0 °F 14.7 °F 19.0 °F 72% 30.20 in 10.0 mi SSW 16.1 mph - N/A   Clear